Location: Winthrop
(48.4780°N, 120.1850°W)
Time: 14:44:14
(UTC-07:00)

Vanguard 3 - Pass Details

Date: 07 February 2023
Orbit: 508 x 3249 km, 33.3° (Epoch: 22 March)

Event Time Altitude Azimuth Distance (km) Brightness Sun altitude
Rises 18:54:55 0° 239° (WSW) 3,923 11.8 -17.8°
Reaches altitude 10° 18:57:27 10° 230° (SW) 3,262 11.0 -18.3°
Maximum altitude 19:05:01 35° 168° (SSE) 2,634 9.6 -19.5°
Enters shadow 19:12:41 20° 120° (ESE) 4,118 10.2 -20.8°
